www.luftgeist.de
Wetterdaten: aktuell Mittwoch, 12.05.2021 15:20
Datum Zeit Auentemp. Sonne (%) Auenfeuchte Luftdruck Regenmenge Wind Windichtung Windichtung Sonnenschein Taupunkt Windchill Windben
12.05.2021 15:20 15,7 C 80 % 81 % 1011,1 hPa 0,0 l/m 6,0 km/h (2 Bft) NW 315 0 min 12,4 C 15,7 C 6,1 km/h (2 Bft)
12.05.2021 15:15 15,6 C 78 % 81 % 1011,1 hPa 0,0 l/m 6,0 km/h (2 Bft) W-NW 292 0 min 12,3 C 15,6 C 9,0 km/h (2 Bft)
12.05.2021 15:10 15,7 C 81 % 80 % 1011,1 hPa 0,0 l/m 5,5 km/h (1 Bft) SO 135 0 min 12,3 C 15,7 C 9,0 km/h (2 Bft)
12.05.2021 15:05 15,5 C 83 % 81 % 1010,9 hPa 0,0 l/m 6,0 km/h (2 Bft) W 270 0 min 12,3 C 15,5 C 6,6 km/h (2 Bft)
12.05.2021 15:00 15,5 C 88 % 80 % 1010,9 hPa 0,0 l/m 6,1 km/h (2 Bft) W 270 5 min 12,1 C 15,5 C 11,4 km/h (2 Bft)
12.05.2021 14:55 15,5 C 88 % 81 % 1010,9 hPa 0,0 l/m 5,6 km/h (1 Bft) W-NW 292 5 min 12,3 C 15,5 C 6,9 km/h (2 Bft)
12.05.2021 14:50 15,3 C 88 % 82 % 1010,9 hPa 0,0 l/m 5,3 km/h (1 Bft) W 270 5 min 12,2 C 15,3 C 6,4 km/h (2 Bft)
12.05.2021 14:45 15,3 C 86 % 82 % 1010,9 hPa 0,0 l/m 5,3 km/h (1 Bft) W-NW 292 5 min 12,2 C 15,3 C 3,7 km/h (1 Bft)
12.05.2021 14:40 15,3 C 80 % 80 % 1010,9 hPa 0,0 l/m 5,3 km/h (1 Bft) NW 315 0 min 11,9 C 15,3 C 6,9 km/h (2 Bft)
12.05.2021 14:35 15,3 C 78 % 81 % 1010,9 hPa 0,2 l/m 4,8 km/h (1 Bft) W-NW 292 0 min 12,1 C 15,3 C 4,5 km/h (1 Bft)
12.05.2021 14:30 15,3 C 78 % 80 % 1010,9 hPa 0,0 l/m 5,6 km/h (1 Bft) NW 315 0 min 11,9 C 15,3 C 7,1 km/h (2 Bft)
12.05.2021 14:25 15,2 C 73 % 80 % 1011,6 hPa 0,0 l/m 5,1 km/h (1 Bft) W-NW 292 0 min 11,8 C 15,2 C 10,6 km/h (2 Bft)
12.05.2021 14:20 15,3 C 73 % 82 % 1011,6 hPa 0,0 l/m 5,0 km/h (1 Bft) W 270 0 min 12,2 C 15,3 C 6,8 km/h (2 Bft)
12.05.2021 14:15 15,2 C 73 % 80 % 1011,6 hPa 0,0 l/m 5,8 km/h (2 Bft) NW 315 0 min 11,8 C 15,2 C 2,3 km/h (1 Bft)
12.05.2021 14:10 15,3 C 69 % 80 % 1011,6 hPa 0,0 l/m 5,5 km/h (1 Bft) N 360 0 min 11,9 C 15,3 C 5,5 km/h (1 Bft)
12.05.2021 14:05 15,4 C 65 % 81 % 1011,4 hPa 0,0 l/m 4,8 km/h (1 Bft) NW 315 0 min 12,2 C 15,4 C 6,0 km/h (2 Bft)
12.05.2021 14:00 15,3 C 75 % 80 % 1011,4 hPa 0,0 l/m 6,0 km/h (2 Bft) NW 315 0 min 11,9 C 15,3 C 4,8 km/h (1 Bft)
12.05.2021 13:55 15,4 C 70 % 79 % 1011,4 hPa 0,0 l/m 7,2 km/h (2 Bft) N-NW 337 0 min 11,8 C 15,4 C 6,0 km/h (2 Bft)
12.05.2021 13:50 15,4 C 73 % 79 % 1011,4 hPa 0,0 l/m 9,2 km/h (2 Bft) NW 315 0 min 11,8 C 15,4 C 8,0 km/h (2 Bft)
12.05.2021 13:45 15,5 C 75 % 79 % 1010,9 hPa 0,0 l/m 9,2 km/h (2 Bft) NW 315 0 min 11,9 C 15,5 C 12,1 km/h (2 Bft)
12.05.2021 13:40 15,5 C 77 % 80 % 1010,9 hPa 0,0 l/m 8,5 km/h (2 Bft) NW 315 0 min 12,1 C 15,5 C 8,0 km/h (2 Bft)
12.05.2021 13:35 15,3 C 82 % 81 % 1010,9 hPa 0,0 l/m 9,7 km/h (2 Bft) N-NW 337 0 min 12,1 C 15,3 C 10,6 km/h (2 Bft)
12.05.2021 13:30 15,2 C 82 % 79 % 1010,9 hPa 0,0 l/m 9,3 km/h (2 Bft) W-NW 292 0 min 11,6 C 15,2 C 11,1 km/h (2 Bft)
12.05.2021 13:25 15,2 C 82 % 80 % 1011,1 hPa 0,0 l/m 8,4 km/h (2 Bft) NW 315 0 min 11,8 C 15,2 C 10,0 km/h (2 Bft)
12.05.2021 13:20 15,1 C 82 % 82 % 1011,1 hPa 0,0 l/m 8,7 km/h (2 Bft) N-NW 337 0 min 12,0 C 15,1 C 8,4 km/h (2 Bft)
12.05.2021 13:15 15,1 C 82 % 81 % 1011,1 hPa 0,0 l/m 8,5 km/h (2 Bft) NW 315 0 min 11,9 C 15,1 C 12,4 km/h (3 Bft)
12.05.2021 13:10 15,1 C 79 % 82 % 1011,1 hPa 0,0 l/m 7,7 km/h (2 Bft) NW 315 0 min 12,0 C 15,1 C 5,5 km/h (1 Bft)
12.05.2021 13:05 15,2 C 78 % 82 % 1010,8 hPa 0,0 l/m 9,5 km/h (2 Bft) NW 315 0 min 12,1 C 15,2 C 12,6 km/h (3 Bft)
12.05.2021 13:00 15,1 C 80 % 81 % 1010,8 hPa 0,0 l/m 10,9 km/h (2 Bft) NW 315 0 min 11,9 C 15,1 C 13,4 km/h (3 Bft)
12.05.2021 12:55 15,1 C 81 % 80 % 1010,8 hPa 0,0 l/m 10,6 km/h (2 Bft) NW 315 0 min 11,7 C 15,1 C 13,5 km/h (3 Bft)
12.05.2021 12:50 14,9 C 82 % 82 % 1010,8 hPa 0,0 l/m 11,1 km/h (2 Bft) NW 315 0 min 11,9 C 14,9 C 11,7 km/h (2 Bft)
12.05.2021 12:45 14,9 C 82 % 82 % 1011,0 hPa 0,0 l/m 11,7 km/h (2 Bft) NW 315 0 min 11,9 C 14,9 C 21,2 km/h (4 Bft)
12.05.2021 12:40 14,8 C 82 % 81 % 1011,0 hPa 0,0 l/m 10,1 km/h (2 Bft) W-NW 292 0 min 11,6 C 14,8 C 11,3 km/h (2 Bft)
12.05.2021 12:35 14,9 C 81 % 83 % 1011,0 hPa 0,0 l/m 9,5 km/h (2 Bft) N-NW 337 0 min 12,0 C 14,9 C 12,9 km/h (3 Bft)
12.05.2021 12:30 14,8 C 81 % 84 % 1011,0 hPa 0,0 l/m 9,3 km/h (2 Bft) N-NW 337 0 min 12,1 C 14,8 C 9,8 km/h (2 Bft)
12.05.2021 12:25 14,8 C 81 % 84 % 1010,7 hPa 0,0 l/m 9,0 km/h (2 Bft) NW 315 0 min 12,1 C 14,8 C 18,5 km/h (3 Bft)
12.05.2021 12:20 14,7 C 81 % 85 % 1010,7 hPa 0,0 l/m 8,5 km/h (2 Bft) NW 315 0 min 12,2 C 14,7 C 4,5 km/h (1 Bft)
12.05.2021 12:15 14,7 C 81 % 85 % 1010,7 hPa 0,0 l/m 8,2 km/h (2 Bft) N-NW 337 0 min 12,2 C 14,7 C 15,6 km/h (3 Bft)
12.05.2021 12:10 14,7 C 83 % 86 % 1010,7 hPa 0,0 l/m 6,3 km/h (2 Bft) NW 315 0 min 12,4 C 14,7 C 7,4 km/h (2 Bft)
12.05.2021 12:05 14,5 C 81 % 88 % 1010,6 hPa 0,0 l/m 5,8 km/h (2 Bft) N-NW 337 0 min 12,5 C 14,5 C 6,3 km/h (2 Bft)
12.05.2021 12:00 14,3 C 77 % 88 % 1010,6 hPa 0,0 l/m 5,8 km/h (2 Bft) W-NW 292 0 min 12,3 C 14,3 C 6,1 km/h (2 Bft)
12.05.2021 11:55 14,3 C 80 % 88 % 1010,6 hPa 0,0 l/m 5,1 km/h (1 Bft) NW 315 0 min 12,3 C 14,3 C 4,8 km/h (1 Bft)
12.05.2021 11:50 14,3 C 73 % 88 % 1010,6 hPa 0,0 l/m 4,8 km/h (1 Bft) W-NW 292 0 min 12,3 C 14,3 C 5,5 km/h (1 Bft)
12.05.2021 11:45 14,2 C 76 % 89 % 1011,1 hPa 0,2 l/m 5,0 km/h (1 Bft) NW 315 0 min 12,4 C 14,2 C 8,0 km/h (2 Bft)
12.05.2021 11:40 14,1 C 79 % 88 % 1011,1 hPa 0,0 l/m 5,8 km/h (2 Bft) W 270 0 min 12,1 C 14,1 C 3,7 km/h (1 Bft)
12.05.2021 11:35 14,1 C 78 % 88 % 1011,1 hPa 0,0 l/m 6,9 km/h (2 Bft) W-SW 247 0 min 12,1 C 14,1 C 7,7 km/h (2 Bft)
12.05.2021 11:30 14,0 C 79 % 88 % 1011,1 hPa 0,2 l/m 7,1 km/h (2 Bft) NW 315 0 min 12,0 C 14,0 C 7,9 km/h (2 Bft)
12.05.2021 11:25 14,1 C 77 % 87 % 1011,4 hPa 0,0 l/m 6,3 km/h (2 Bft) W 270 0 min 12,0 C 14,1 C 6,0 km/h (2 Bft)
12.05.2021 11:20 14,3 C 78 % 88 % 1011,4 hPa 0,0 l/m 6,4 km/h (2 Bft) W-SW 247 0 min 12,3 C 14,3 C 7,4 km/h (2 Bft)
12.05.2021 11:15 14,3 C 78 % 87 % 1011,4 hPa 0,2 l/m 7,4 km/h (2 Bft) W-NW 292 0 min 12,2 C 14,3 C 15,1 km/h (3 Bft)
12.05.2021 11:10 14,4 C 78 % 86 % 1011,4 hPa 0,0 l/m 6,6 km/h (2 Bft) N-NW 337 0 min 12,1 C 14,4 C 12,1 km/h (2 Bft)
12.05.2021 11:05 14,5 C 79 % 87 % 1010,8 hPa 0,0 l/m 6,1 km/h (2 Bft) W 270 0 min 12,4 C 14,5 C 11,1 km/h (2 Bft)
12.05.2021 11:00 14,5 C 80 % 86 % 1010,8 hPa 0,0 l/m 6,4 km/h (2 Bft) W-NW 292 0 min 12,2 C 14,5 C 6,9 km/h (2 Bft)
12.05.2021 10:55 14,4 C 79 % 87 % 1010,8 hPa 0,2 l/m 6,0 km/h (2 Bft) NW 315 0 min 12,3 C 14,4 C 10,8 km/h (2 Bft)
12.05.2021 10:50 14,5 C 79 % 87 % 1010,8 hPa 0,0 l/m 6,1 km/h (2 Bft) W 270 0 min 12,4 C 14,5 C 7,4 km/h (2 Bft)
12.05.2021 10:45 14,4 C 79 % 87 % 1010,6 hPa 0,0 l/m 6,1 km/h (2 Bft) W-NW 292 0 min 12,3 C 14,4 C 5,6 km/h (1 Bft)
12.05.2021 10:40 14,2 C 79 % 88 % 1010,6 hPa 0,0 l/m 5,5 km/h (1 Bft) N-NW 337 0 min 12,2 C 14,2 C 4,5 km/h (1 Bft)
12.05.2021 10:35 14,2 C 76 % 88 % 1010,6 hPa 0,0 l/m 6,3 km/h (2 Bft) W-NW 292 0 min 12,2 C 14,2 C 8,4 km/h (2 Bft)
12.05.2021 10:30 14,1 C 76 % 88 % 1010,6 hPa 0,0 l/m 5,6 km/h (1 Bft) NW 315 0 min 12,1 C 14,1 C 10,8 km/h (2 Bft)
12.05.2021 10:25 14,1 C 70 % 88 % 1010,5 hPa 0,0 l/m 5,0 km/h (1 Bft) W 270 0 min 12,1 C 14,1 C 10,3 km/h (2 Bft)
12.05.2021 10:20 14,0 C 72 % 88 % 1010,5 hPa 0,0 l/m 4,2 km/h (1 Bft) W 270 0 min 12,0 C 14,0 C 4,8 km/h (1 Bft)
12.05.2021 10:15 14,1 C 72 % 88 % 1010,5 hPa 0,0 l/m 4,0 km/h (1 Bft) W 270 0 min 12,1 C 14,1 C 4,8 km/h (1 Bft)
12.05.2021 10:10 14,0 C 69 % 88 % 1010,5 hPa 0,0 l/m 4,3 km/h (1 Bft) W-NW 292 0 min 12,0 C 14,0 C 4,2 km/h (1 Bft)
12.05.2021 10:05 14,0 C 66 % 88 % 1010,3 hPa 0,2 l/m 5,3 km/h (1 Bft) NW 315 0 min 12,0 C 14,0 C 3,5 km/h (1 Bft)
12.05.2021 10:00 14,0 C 74 % 88 % 1010,3 hPa 0,0 l/m 5,0 km/h (1 Bft) NW 315 0 min 12,0 C 14,0 C 6,0 km/h (2 Bft)
12.05.2021 09:55 14,0 C 76 % 88 % 1010,3 hPa 0,0 l/m 4,3 km/h (1 Bft) N-NW 337 0 min 12,0 C 14,0 C 9,2 km/h (2 Bft)
12.05.2021 09:50 13,9 C 76 % 88 % 1010,3 hPa 0,0 l/m 5,0 km/h (1 Bft) NW 315 0 min 11,9 C 13,9 C 4,0 km/h (1 Bft)
12.05.2021 09:45 13,9 C 75 % 89 % 1010,6 hPa 0,0 l/m 5,3 km/h (1 Bft) W-NW 292 0 min 12,1 C 13,9 C 7,7 km/h (2 Bft)
12.05.2021 09:40 13,7 C 76 % 88 % 1010,6 hPa 0,2 l/m 4,8 km/h (1 Bft) W-NW 292 0 min 11,7 C 13,7 C 2,9 km/h (1 Bft)
12.05.2021 09:35 13,7 C 76 % 88 % 1010,6 hPa 0,0 l/m 5,3 km/h (1 Bft) W 270 0 min 11,7 C 13,7 C 4,2 km/h (1 Bft)
12.05.2021 09:30 13,6 C 72 % 88 % 1010,6 hPa 0,0 l/m 4,8 km/h (1 Bft) NW 315 0 min 11,6 C 13,6 C 4,8 km/h (1 Bft)
12.05.2021 09:25 13,8 C 70 % 89 % 1010,4 hPa 0,0 l/m 4,3 km/h (1 Bft) W-SW 247 0 min 12,0 C 13,8 C 9,2 km/h (2 Bft)
12.05.2021 09:20 13,6 C 69 % 89 % 1010,4 hPa 0,2 l/m 4,2 km/h (1 Bft) NW 315 0 min 11,8 C 13,6 C 8,2 km/h (2 Bft)
12.05.2021 09:15 13,6 C 72 % 89 % 1010,4 hPa 0,0 l/m 3,9 km/h (1 Bft) W-SW 247 0 min 11,8 C 13,6 C 3,7 km/h (1 Bft)
12.05.2021 09:10 13,6 C 73 % 89 % 1010,4 hPa 0,0 l/m 3,2 km/h (1 Bft) W 270 0 min 11,8 C 13,6 C 3,1 km/h (1 Bft)
12.05.2021 09:05 13,5 C 67 % 89 % 1010,4 hPa 0,2 l/m 2,9 km/h (1 Bft) W 270 0 min 11,7 C 13,5 C 3,5 km/h (1 Bft)
12.05.2021 09:00 13,5 C 69 % 89 % 1010,4 hPa 0,0 l/m 3,2 km/h (1 Bft) NW 315 0 min 11,7 C 13,5 C 3,5 km/h (1 Bft)
12.05.2021 08:55 13,5 C 66 % 89 % 1010,4 hPa 0,0 l/m 3,4 km/h (1 Bft) W-NW 292 0 min 11,7 C 13,5 C 5,1 km/h (1 Bft)
12.05.2021 08:50 13,4 C 66 % 89 % 1010,4 hPa 0,0 l/m 3,5 km/h (1 Bft) W-SW 247 0 min 11,6 C 13,4 C 3,9 km/h (1 Bft)
12.05.2021 08:45 13,3 C 57 % 89 % 1010,0 hPa 0,2 l/m 4,2 km/h (1 Bft) W 270 0 min 11,5 C 13,3 C 4,0 km/h (1 Bft)
12.05.2021 08:40 13,3 C 62 % 89 % 1010,0 hPa 0,0 l/m 4,2 km/h (1 Bft) NW 315 0 min 11,5 C 13,3 C 3,1 km/h (1 Bft)
12.05.2021 08:35 13,3 C 63 % 90 % 1010,0 hPa 0,2 l/m 4,7 km/h (1 Bft) W 270 0 min 11,7 C 13,3 C 10,6 km/h (2 Bft)
12.05.2021 08:30 13,2 C 61 % 89 % 1010,0 hPa 0,0 l/m 6,3 km/h (2 Bft) W 270 0 min 11,4 C 13,2 C 9,2 km/h (2 Bft)
12.05.2021 08:25 13,3 C 61 % 90 % 1009,9 hPa 0,0 l/m 6,9 km/h (2 Bft) W-NW 292 0 min 11,7 C 13,3 C 14,2 km/h (3 Bft)
12.05.2021 08:20 13,2 C 64 % 90 % 1009,9 hPa 0,2 l/m 6,6 km/h (2 Bft) W-SW 247 0 min 11,6 C 13,2 C 6,1 km/h (2 Bft)
12.05.2021 08:15 13,2 C 61 % 90 % 1009,9 hPa 0,0 l/m 6,4 km/h (2 Bft) W 270 0 min 11,6 C 13,2 C 9,0 km/h (2 Bft)
12.05.2021 08:10 13,2 C 57 % 89 % 1009,9 hPa 0,0 l/m 6,3 km/h (2 Bft) W 270 0 min 11,4 C 13,2 C 10,3 km/h (2 Bft)
12.05.2021 08:05 13,1 C 50 % 89 % 1009,9 hPa 0,0 l/m 6,0 km/h (2 Bft) W 270 0 min 11,3 C 13,1 C 11,1 km/h (2 Bft)
12.05.2021 08:00 13,2 C 53 % 90 % 1009,9 hPa 0,0 l/m 6,8 km/h (2 Bft) W 270 0 min 11,6 C 13,2 C 7,9 km/h (2 Bft)
12.05.2021 07:55 13,2 C 49 % 90 % 1009,9 hPa 0,2 l/m 6,9 km/h (2 Bft) W 270 0 min 11,6 C 13,2 C 8,5 km/h (2 Bft)
12.05.2021 07:50 13,3 C 52 % 90 % 1009,9 hPa 0,0 l/m 6,8 km/h (2 Bft) W 270 0 min 11,7 C 13,3 C 10,5 km/h (2 Bft)
12.05.2021 07:45 13,2 C 49 % 90 % 1009,4 hPa 0,0 l/m 7,1 km/h (2 Bft) W-SW 247 0 min 11,6 C 13,2 C 5,0 km/h (1 Bft)
12.05.2021 07:40 13,2 C 48 % 90 % 1009,4 hPa 0,0 l/m 7,6 km/h (2 Bft) W-NW 292 0 min 11,6 C 13,2 C 6,4 km/h (2 Bft)
12.05.2021 07:35 13,3 C 46 % 90 % 1009,4 hPa 0,0 l/m 7,2 km/h (2 Bft) W 270 0 min 11,7 C 13,3 C 8,5 km/h (2 Bft)
12.05.2021 07:30 13,2 C 48 % 90 % 1009,4 hPa 0,0 l/m 6,9 km/h (2 Bft) W 270 0 min 11,6 C 13,2 C 9,5 km/h (2 Bft)
12.05.2021 07:25 13,3 C 49 % 90 % 1009,6 hPa 0,0 l/m 6,3 km/h (2 Bft) W-NW 292 0 min 11,7 C 13,3 C 8,5 km/h (2 Bft)
12.05.2021 07:20 13,3 C 50 % 90 % 1009,6 hPa 0,0 l/m 6,1 km/h (2 Bft) W-SW 247 0 min 11,7 C 13,3 C 7,9 km/h (2 Bft)
12.05.2021 07:15 13,2 C 50 % 90 % 1009,6 hPa 0,0 l/m 6,0 km/h (2 Bft) W-NW 292 0 min 11,6 C 13,2 C 6,4 km/h (2 Bft)
12.05.2021 07:10 13,2 C 39 % 90 % 1009,6 hPa 0,0 l/m 6,0 km/h (2 Bft) W 270 0 min 11,6 C 13,2 C 7,9 km/h (2 Bft)
12.05.2021 07:05 13,3 C 42 % 90 % 1009,4 hPa 0,0 l/m 5,5 km/h (1 Bft) W 270 0 min 11,7 C 13,3 C 5,3 km/h (1 Bft)
12.05.2021 07:00 13,2 C 42 % 90 % 1009,4 hPa 0,0 l/m 5,6 km/h (1 Bft) W 270 0 min 11,6 C 13,2 C 6,8 km/h (2 Bft)
12.05.2021 06:55 13,2 C 47 % 90 % 1009,4 hPa 0,0 l/m 6,6 km/h (2 Bft) W-SW 247 0 min 11,6 C 13,2 C 8,9 km/h (2 Bft)
12.05.2021 06:50 13,2 C 49 % 90 % 1009,4 hPa 0,0 l/m 7,7 km/h (2 Bft) W 270 0 min 11,6 C 13,2 C 11,6 km/h (2 Bft)
12.05.2021 06:45 13,3 C 43 % 90 % 1009,2 hPa 0,0 l/m 7,6 km/h (2 Bft) W-NW 292 0 min 11,7 C 13,3 C 10,5 km/h (2 Bft)
12.05.2021 06:40 13,2 C 43 % 91 % 1009,2 hPa 0,0 l/m 7,1 km/h (2 Bft) W-SW 247 0 min 11,8 C 13,2 C 11,1 km/h (2 Bft)
12.05.2021 06:35 13,3 C 44 % 91 % 1009,2 hPa 0,0 l/m 6,6 km/h (2 Bft) W 270 0 min 11,9 C 13,3 C 9,8 km/h (2 Bft)
12.05.2021 06:30 13,4 C 43 % 91 % 1009,2 hPa 0,0 l/m 6,1 km/h (2 Bft) W-SW 247 0 min 12,0 C 13,4 C 9,3 km/h (2 Bft)
12.05.2021 06:25 13,3 C 37 % 91 % 1008,8 hPa 0,0 l/m 6,0 km/h (2 Bft) W 270 0 min 11,9 C 13,3 C 6,8 km/h (2 Bft)
12.05.2021 06:20 13,3 C 32 % 91 % 1008,8 hPa 0,0 l/m 6,9 km/h (2 Bft) W 270 0 min 11,9 C 13,3 C 5,6 km/h (1 Bft)
12.05.2021 06:15 13,5 C 28 % 91 % 1008,8 hPa 0,0 l/m 7,6 km/h (2 Bft) W 270 0 min 12,1 C 13,5 C 8,0 km/h (2 Bft)
12.05.2021 06:10 13,4 C 26 % 91 % 1008,8 hPa 0,0 l/m 8,0 km/h (2 Bft) W 270 0 min 12,0 C 13,4 C 9,8 km/h (2 Bft)
12.05.2021 06:05 13,4 C 24 % 91 % 1008,6 hPa 0,0 l/m 7,4 km/h (2 Bft) W-SW 247 0 min 12,0 C 13,4 C 10,3 km/h (2 Bft)
12.05.2021 06:01 13,4 C 24 % 91 % 1008,6 hPa 0,0 l/m 7,4 km/h (2 Bft) W-SW 247 0 min 12,0 C 13,4 C 10,3 km/h (2 Bft)
12.05.2021 06:00 13,4 C 24 % 91 % 1008,6 hPa 0,0 l/m 7,4 km/h (2 Bft) W-SW 247 0 min 12,0 C 13,4 C 10,3 km/h (2 Bft)
12.05.2021 05:55 13,5 C 16 % 91 % 1008,6 hPa 0,2 l/m 7,2 km/h (2 Bft) W-SW 247 0 min 12,1 C 13,5 C 14,0 km/h (3 Bft)
12.05.2021 05:50 13,5 C 17 % 91 % 1008,6 hPa 0,0 l/m 6,3 km/h (2 Bft) W-SW 247 0 min 12,1 C 13,5 C 5,6 km/h (1 Bft)
12.05.2021 05:45 13,5 C 14 % 91 % 1008,6 hPa 0,0 l/m 7,1 km/h (2 Bft) W-SW 247 0 min 12,1 C 13,5 C 9,5 km/h (2 Bft)
12.05.2021 05:40 13,5 C 10 % 91 % 1008,6 hPa 0,0 l/m 7,2 km/h (2 Bft) W 270 0 min 12,1 C 13,5 C 6,8 km/h (2 Bft)
12.05.2021 05:35 13,4 C 8 % 91 % 1008,6 hPa 0,0 l/m 7,1 km/h (2 Bft) W 270 0 min 12,0 C 13,4 C 12,1 km/h (2 Bft)
12.05.2021 05:30 13,5 C 6 % 91 % 1008,6 hPa 0,0 l/m 7,1 km/h (2 Bft) W-SW 247 0 min 12,1 C 13,5 C 7,6 km/h (2 Bft)
12.05.2021 05:25 13,5 C 4 % 91 % 1008,6 hPa 0,0 l/m 7,1 km/h (2 Bft) W-SW 247 0 min 12,1 C 13,5 C 11,9 km/h (2 Bft)
12.05.2021 05:20 13,5 C 3 % 91 % 1008,6 hPa 0,0 l/m 6,3 km/h (2 Bft) W 270 0 min 12,1 C 13,5 C 7,2 km/h (2 Bft)
12.05.2021 05:15 13,5 C 2 % 91 % 1008,6 hPa 0,2 l/m 6,0 km/h (2 Bft) W-SW 247 0 min 12,1 C 13,5 C 8,0 km/h (2 Bft)
12.05.2021 05:10 13,6 C 2 % 91 % 1008,6 hPa 0,0 l/m 5,6 km/h (1 Bft) W 270 0 min 12,2 C 13,6 C 7,6 km/h (2 Bft)
12.05.2021 05:05 13,5 C 2 % 91 % 1008,9 hPa 0,0 l/m 5,5 km/h (1 Bft) W-SW 247 0 min 12,1 C 13,5 C 6,1 km/h (2 Bft)
12.05.2021 05:00 13,6 C 2 % 91 % 1008,9 hPa 0,0 l/m 6,1 km/h (2 Bft) W 270 0 min 12,2 C 13,6 C 5,0 km/h (1 Bft)
12.05.2021 04:55 13,6 C 2 % 91 % 1008,9 hPa 0,0 l/m 5,8 km/h (2 Bft) W-SW 247 0 min 12,2 C 13,6 C 5,1 km/h (1 Bft)
12.05.2021 04:50 13,6 C 2 % 90 % 1008,9 hPa 0,2 l/m 4,8 km/h (1 Bft) W-SW 247 0 min 12,0 C 13,6 C 9,8 km/h (2 Bft)
12.05.2021 04:45 13,6 C 2 % 90 % 1009,0 hPa 0,0 l/m 4,0 km/h (1 Bft) W-SW 247 0 min 12,0 C 13,6 C 4,2 km/h (1 Bft)
12.05.2021 04:40 13,6 C 2 % 90 % 1009,0 hPa 0,0 l/m 3,5 km/h (1 Bft) SW 225 0 min 12,0 C 13,6 C 4,8 km/h (1 Bft)
12.05.2021 04:35 13,6 C 1 % 90 % 1009,0 hPa 0,0 l/m 3,4 km/h (1 Bft) W 270 0 min 12,0 C 13,6 C 3,5 km/h (1 Bft)
12.05.2021 04:30 13,7 C 2 % 90 % 1009,0 hPa 0,0 l/m 2,7 km/h (1 Bft) W-SW 247 0 min 12,1 C 13,7 C 4,3 km/h (1 Bft)
12.05.2021 04:25 13,7 C 1 % 90 % 1008,8 hPa 0,2 l/m 2,4 km/h (1 Bft) W-SW 247 0 min 12,1 C 13,7 C 4,7 km/h (1 Bft)
12.05.2021 04:20 13,7 C 1 % 90 % 1008,8 hPa 0,0 l/m 1,8 km/h (1 Bft) W-SW 247 0 min 12,1 C 13,7 C 4,3 km/h (1 Bft)
12.05.2021 04:15 13,7 C 1 % 90 % 1008,8 hPa 0,0 l/m 2,3 km/h (1 Bft) SW 225 0 min 12,1 C 13,7 C 4,7 km/h (1 Bft)
12.05.2021 04:10 13,7 C 1 % 90 % 1008,8 hPa 0,0 l/m 2,7 km/h (1 Bft) W-SW 247 0 min 12,1 C 13,7 C 2,4 km/h (1 Bft)
12.05.2021 04:05 13,7 C 1 % 90 % 1008,8 hPa 0,0 l/m 2,4 km/h (1 Bft) W-SW 247 0 min 12,1 C 13,7 C 2,7 km/h (1 Bft)
12.05.2021 04:00 13,7 C 1 % 90 % 1008,8 hPa 0,0 l/m 2,9 km/h (1 Bft) W-SW 247 0 min 12,1 C 13,7 C 4,5 km/h (1 Bft)
12.05.2021 03:55 13,8 C 2 % 90 % 1008,8 hPa 0,0 l/m 3,5 km/h (1 Bft) W-SW 247 0 min 12,2 C 13,8 C 2,3 km/h (1 Bft)
12.05.2021 03:50 13,9 C 2 % 90 % 1008,8 hPa 0,2 l/m 3,7 km/h (1 Bft) W-SW 247 0 min 12,3 C 13,9 C 3,5 km/h (1 Bft)
12.05.2021 03:45 13,9 C 2 % 90 % 1008,9 hPa 0,0 l/m 3,5 km/h (1 Bft) W 270 0 min 12,3 C 13,9 C 3,2 km/h (1 Bft)
12.05.2021 03:40 13,8 C 1 % 90 % 1008,9 hPa 0,2 l/m 4,3 km/h (1 Bft) S-SO 157 0 min 12,2 C 13,8 C 2,7 km/h (1 Bft)
12.05.2021 03:35 13,9 C 2 % 90 % 1008,9 hPa 0,0 l/m 4,5 km/h (1 Bft) W 270 0 min 12,3 C 13,9 C 6,3 km/h (2 Bft)
12.05.2021 03:30 13,8 C 2 % 90 % 1008,9 hPa 0,0 l/m 4,3 km/h (1 Bft) W 270 0 min 12,2 C 13,8 C 8,7 km/h (2 Bft)
12.05.2021 03:26 13,8 C 2 % 90 % 1008,9 hPa 0,0 l/m 4,3 km/h (1 Bft) W 270 0 min 12,2 C 13,8 C 8,7 km/h (2 Bft)
12.05.2021 03:23 13,9 C 2 % 90 % 1008,8 hPa 0,2 l/m 3,9 km/h (1 Bft) W 270 0 min 12,3 C 13,9 C 5,1 km/h (1 Bft)
12.05.2021 03:16 13,9 C 2 % 90 % 1008,8 hPa 0,2 l/m 4,8 km/h (1 Bft) W 270 0 min 12,3 C 13,9 C 6,3 km/h (2 Bft)
12.05.2021 03:15 14,0 C 2 % 90 % 1008,8 hPa 0,0 l/m 5,1 km/h (1 Bft) W-SW 247 0 min 12,4 C 14,0 C 6,4 km/h (2 Bft)
12.05.2021 03:13 14,0 C 2 % 90 % 1008,8 hPa 0,0 l/m 5,1 km/h (1 Bft) W-SW 247 0 min 12,4 C 14,0 C 6,4 km/h (2 Bft)
12.05.2021 03:10 14,0 C 2 % 90 % 1008,8 hPa 0,2 l/m 5,1 km/h (1 Bft) W 270 0 min 12,4 C 14,0 C 6,8 km/h (2 Bft)
12.05.2021 03:05 14,1 C 2 % 90 % 1008,9 hPa 0,0 l/m 4,7 km/h (1 Bft) W 270 0 min 12,5 C 14,1 C 6,0 km/h (2 Bft)
12.05.2021 03:00 14,0 C 2 % 90 % 1008,9 hPa 0,0 l/m 4,2 km/h (1 Bft) W-SW 247 0 min 12,4 C 14,0 C 7,1 km/h (2 Bft)
12.05.2021 02:55 14,1 C 2 % 90 % 1008,9 hPa 0,0 l/m 4,3 km/h (1 Bft) SW 225 0 min 12,5 C 14,1 C 4,5 km/h (1 Bft)
12.05.2021 02:50 14,1 C 2 % 90 % 1008,9 hPa 0,0 l/m 5,3 km/h (1 Bft) SW 225 0 min 12,5 C 14,1 C 7,6 km/h (2 Bft)
12.05.2021 02:45 14,2 C 2 % 90 % 1008,9 hPa 0,2 l/m 5,5 km/h (1 Bft) W-SW 247 0 min 12,6 C 14,2 C 6,4 km/h (2 Bft)
12.05.2021 02:40 14,3 C 2 % 90 % 1008,9 hPa 0,0 l/m 5,1 km/h (1 Bft) W-SW 247 0 min 12,7 C 14,3 C 5,6 km/h (1 Bft)
12.05.2021 02:35 14,3 C 2 % 90 % 1008,9 hPa 0,2 l/m 4,5 km/h (1 Bft) W-SW 247 0 min 12,7 C 14,3 C 4,7 km/h (1 Bft)
12.05.2021 02:30 14,4 C 2 % 89 % 1008,9 hPa 0,0 l/m 5,1 km/h (1 Bft) W-SW 247 0 min 12,6 C 14,4 C 7,2 km/h (2 Bft)
12.05.2021 02:25 14,4 C 2 % 90 % 1008,7 hPa 0,3 l/m 5,6 km/h (1 Bft) W 270 0 min 12,8 C 14,4 C 10,5 km/h (2 Bft)
12.05.2021 02:20 14,5 C 2 % 90 % 1008,7 hPa 0,0 l/m 5,3 km/h (1 Bft) W 270 0 min 12,9 C 14,5 C 7,9 km/h (2 Bft)
12.05.2021 02:15 14,5 C 2 % 89 % 1008,7 hPa 0,2 l/m 3,5 km/h (1 Bft) W-SW 247 0 min 12,7 C 14,5 C 10,0 km/h (2 Bft)
12.05.2021 02:10 14,5 C 2 % 89 % 1008,7 hPa 0,2 l/m 2,1 km/h (1 Bft) W-SW 247 0 min 12,7 C 14,5 C 8,5 km/h (2 Bft)
12.05.2021 02:05 14,4 C 2 % 89 % 1008,8 hPa 0,0 l/m 1,9 km/h (1 Bft) SO 135 0 min 12,6 C 14,4 C 0,0 km/h (0 Bft)
12.05.2021 02:00 14,4 C 1 % 89 % 1008,8 hPa 0,2 l/m 2,6 km/h (1 Bft) SW 225 0 min 12,6 C 14,4 C 2,7 km/h (1 Bft)
12.05.2021 01:55 14,5 C 2 % 89 % 1008,8 hPa 0,0 l/m 2,3 km/h (1 Bft) SW 225 0 min 12,7 C 14,5 C 1,9 km/h (1 Bft)
12.05.2021 01:50 14,5 C 1 % 89 % 1008,8 hPa 0,2 l/m 2,6 km/h (1 Bft) S-SW 202 0 min 12,7 C 14,5 C 7,7 km/h (2 Bft)
12.05.2021 01:45 14,5 C 2 % 89 % 1008,6 hPa 0,0 l/m 2,9 km/h (1 Bft) SW 225 0 min 12,7 C 14,5 C 5,1 km/h (1 Bft)
12.05.2021 01:40 14,6 C 1 % 89 % 1008,6 hPa 0,2 l/m 2,4 km/h (1 Bft) S-SW 202 0 min 12,8 C 14,6 C 4,3 km/h (1 Bft)
12.05.2021 01:35 14,7 C 2 % 89 % 1008,6 hPa 0,0 l/m 2,4 km/h (1 Bft) S-SW 202 0 min 12,9 C 14,7 C 2,9 km/h (1 Bft)
12.05.2021 01:30 14,7 C 1 % 89 % 1008,6 hPa 0,2 l/m 2,9 km/h (1 Bft) SW 225 0 min 12,9 C 14,7 C 4,8 km/h (1 Bft)
12.05.2021 01:25 14,7 C 1 % 89 % 1008,7 hPa 0,0 l/m 2,7 km/h (1 Bft) W 270 0 min 12,9 C 14,7 C 4,7 km/h (1 Bft)
12.05.2021 01:20 14,7 C 1 % 89 % 1008,7 hPa 0,2 l/m 2,6 km/h (1 Bft) W-SW 247 0 min 12,9 C 14,7 C 1,9 km/h (1 Bft)
12.05.2021 01:15 14,7 C 1 % 89 % 1008,7 hPa 0,0 l/m 3,2 km/h (1 Bft) SW 225 0 min 12,9 C 14,7 C 4,8 km/h (1 Bft)
12.05.2021 01:10 14,7 C 2 % 89 % 1008,7 hPa 0,2 l/m 3,7 km/h (1 Bft) W-SW 247 0 min 12,9 C 14,7 C 6,4 km/h (2 Bft)
12.05.2021 01:05 14,7 C 1 % 89 % 1008,7 hPa 0,0 l/m 3,5 km/h (1 Bft) W 270 0 min 12,9 C 14,7 C 6,6 km/h (2 Bft)
12.05.2021 01:00 14,7 C 2 % 88 % 1008,7 hPa 0,0 l/m 3,7 km/h (1 Bft) S-SW 202 0 min 12,7 C 14,7 C 2,9 km/h (1 Bft)
12.05.2021 00:55 14,6 C 2 % 88 % 1008,7 hPa 0,0 l/m 3,7 km/h (1 Bft) SW 225 0 min 12,6 C 14,6 C 9,5 km/h (2 Bft)
12.05.2021 00:50 14,7 C 1 % 88 % 1008,7 hPa 0,2 l/m 3,4 km/h (1 Bft) W 270 0 min 12,7 C 14,7 C 4,8 km/h (1 Bft)
12.05.2021 00:45 14,7 C 1 % 88 % 1008,6 hPa 0,0 l/m 3,2 km/h (1 Bft) W-SW 247 0 min 12,7 C 14,7 C 4,0 km/h (1 Bft)
12.05.2021 00:40 14,7 C 1 % 88 % 1008,6 hPa 0,0 l/m 2,9 km/h (1 Bft) S-SW 202 0 min 12,7 C 14,7 C 2,7 km/h (1 Bft)
12.05.2021 00:35 14,7 C 1 % 88 % 1008,6 hPa 0,0 l/m 2,7 km/h (1 Bft) W 270 0 min 12,7 C 14,7 C 7,6 km/h (2 Bft)
12.05.2021 00:30 14,8 C 2 % 88 % 1008,6 hPa 0,0 l/m 2,6 km/h (1 Bft) W 270 0 min 12,8 C 14,8 C 2,7 km/h (1 Bft)
12.05.2021 00:25 14,8 C 2 % 88 % 1008,4 hPa 0,0 l/m 2,6 km/h (1 Bft) W-SW 247 0 min 12,8 C 14,8 C 7,4 km/h (2 Bft)
12.05.2021 00:20 14,8 C 2 % 88 % 1008,4 hPa 0,0 l/m 1,9 km/h (1 Bft) SW 225 0 min 12,8 C 14,8 C 4,7 km/h (1 Bft)
12.05.2021 00:15 14,8 C 2 % 88 % 1008,4 hPa 0,0 l/m 2,1 km/h (1 Bft) W 270 0 min 12,8 C 14,8 C 5,0 km/h (1 Bft)
12.05.2021 00:10 14,8 C 2 % 87 % 1008,4 hPa 0,0 l/m 3,2 km/h (1 Bft) W-SW 247 0 min 12,7 C 14,8 C 3,9 km/h (1 Bft)
12.05.2021 00:05 14,8 C 2 % 87 % 1008,3 hPa 0,0 l/m 4,2 km/h (1 Bft) NW 315 0 min 12,7 C 14,8 C 2,9 km/h (1 Bft)
12.05.2021 00:00 14,9 C 2 % 88 % 1008,3 hPa 0,2 l/m 4,8 km/h (1 Bft) W-SW 247 0 min 12,9 C 14,9 C 4,5 km/h (1 Bft)
11.05.2021 23:55 14,9 C 2 % 88 % 1008,3 hPa 0,0 l/m 4,8 km/h (1 Bft) W-SW 247 0 min 12,9 C 14,9 C 7,7 km/h (2 Bft)
11.05.2021 23:50 14,9 C 2 % 88 % 1008,3 hPa 0,0 l/m 3,9 km/h (1 Bft) W-SW 247 0 min 12,9 C 14,9 C 6,9 km/h (2 Bft)
11.05.2021 23:45 15,0 C 2 % 87 % 1008,3 hPa 0,0 l/m 2,7 km/h (1 Bft) W-SW 247 0 min 12,9 C 15,0 C 6,8 km/h (2 Bft)
11.05.2021 23:40 15,1 C 2 % 87 % 1008,3 hPa 0,0 l/m 2,9 km/h (1 Bft) W 270 0 min 13,0 C 15,1 C 3,4 km/h (1 Bft)
11.05.2021 23:35 15,1 C 1 % 87 % 1008,3 hPa 0,0 l/m 4,0 km/h (1 Bft) W-SW 247 0 min 13,0 C 15,1 C 3,9 km/h (1 Bft)
11.05.2021 23:30 15,1 C 2 % 87 % 1008,3 hPa 0,0 l/m 4,2 km/h (1 Bft) W 270 0 min 13,0 C 15,1 C 5,0 km/h (1 Bft)
11.05.2021 23:25 15,1 C 1 % 87 % 1008,6 hPa 0,0 l/m 4,5 km/h (1 Bft) W 270 0 min 13,0 C 15,1 C 4,8 km/h (1 Bft)
11.05.2021 23:20 15,1 C 1 % 87 % 1008,6 hPa 0,0 l/m 5,0 km/h (1 Bft) W-NW 292 0 min 13,0 C 15,1 C 6,1 km/h (2 Bft)
11.05.2021 23:15 15,0 C 1 % 87 % 1008,6 hPa 0,0 l/m 5,0 km/h (1 Bft) W 270 0 min 12,9 C 15,0 C 6,0 km/h (2 Bft)
11.05.2021 23:10 15,1 C 1 % 87 % 1008,6 hPa 0,0 l/m 5,1 km/h (1 Bft) W 270 0 min 13,0 C 15,1 C 6,4 km/h (2 Bft)
11.05.2021 23:05 15,1 C 1 % 87 % 1008,8 hPa 0,0 l/m 5,0 km/h (1 Bft) W-SW 247 0 min 13,0 C 15,1 C 6,0 km/h (2 Bft)
11.05.2021 23:00 15,1 C 1 % 87 % 1008,8 hPa 0,0 l/m 4,3 km/h (1 Bft) W 270 0 min 13,0 C 15,1 C 4,8 km/h (1 Bft)
11.05.2021 22:55 15,2 C 1 % 87 % 1008,8 hPa 0,0 l/m 4,2 km/h (1 Bft) W 270 0 min 13,0 C 15,2 C 4,2 km/h (1 Bft)
11.05.2021 22:50 15,2 C 1 % 86 % 1008,8 hPa 0,0 l/m 3,1 km/h (1 Bft) SW 225 0 min 12,9 C 15,2 C 4,8 km/h (1 Bft)
11.05.2021 22:45 15,2 C 1 % 86 % 1008,8 hPa 0,0 l/m 2,6 km/h (1 Bft) W 270 0 min 12,9 C 15,2 C 5,5 km/h (1 Bft)
11.05.2021 22:40 15,3 C 1 % 86 % 1008,8 hPa 0,0 l/m 2,3 km/h (1 Bft) SW 225 0 min 13,0 C 15,3 C 1,9 km/h (1 Bft)
11.05.2021 22:35 15,3 C 1 % 86 % 1008,8 hPa 0,0 l/m 2,3 km/h (1 Bft) W 270 0 min 13,0 C 15,3 C 2,1 km/h (1 Bft)
11.05.2021 22:30 15,3 C 1 % 86 % 1008,8 hPa 0,0 l/m 3,1 km/h (1 Bft) W 270 0 min 13,0 C 15,3 C 4,0 km/h (1 Bft)
11.05.2021 22:25 15,3 C 1 % 86 % 1008,8 hPa 0,0 l/m 3,4 km/h (1 Bft) W-SW 247 0 min 13,0 C 15,3 C 3,7 km/h (1 Bft)
11.05.2021 22:20 15,3 C 1 % 86 % 1008,8 hPa 0,0 l/m 3,2 km/h (1 Bft) W-SW 247 0 min 13,0 C 15,3 C 3,1 km/h (1 Bft)
11.05.2021 22:15 15,3 C 1 % 86 % 1008,8 hPa 0,0 l/m 3,2 km/h (1 Bft) SW 225 0 min 13,0 C 15,3 C 3,1 km/h (1 Bft)
11.05.2021 22:10 15,4 C 1 % 86 % 1008,8 hPa 0,0 l/m 3,1 km/h (1 Bft) W-SW 247 0 min 13,1 C 15,4 C 3,7 km/h (1 Bft)
11.05.2021 22:05 15,5 C 1 % 86 % 1008,6 hPa 0,0 l/m 3,1 km/h (1 Bft) W-SW 247 0 min 13,2 C 15,5 C 5,5 km/h (1 Bft)
11.05.2021 22:00 15,5 C 1 % 86 % 1008,6 hPa 0,0 l/m 3,5 km/h (1 Bft) W 270 0 min 13,2 C 15,5 C 3,2 km/h (1 Bft)
11.05.2021 21:55 15,5 C 1 % 86 % 1008,6 hPa 0,0 l/m 3,5 km/h (1 Bft) W-SW 247 0 min 13,2 C 15,5 C 4,3 km/h (1 Bft)
11.05.2021 21:50 15,5 C 1 % 86 % 1008,6 hPa 0,0 l/m 4,7 km/h (1 Bft) S-SW 202 0 min 13,2 C 15,5 C 4,3 km/h (1 Bft)
11.05.2021 21:45 15,5 C 1 % 86 % 1008,6 hPa 0,0 l/m 5,6 km/h (1 Bft) W-NW 292 0 min 13,2 C 15,5 C 4,5 km/h (1 Bft)
11.05.2021 21:40 15,4 C 1 % 85 % 1008,6 hPa 0,0 l/m 5,1 km/h (1 Bft) W-SW 247 0 min 12,9 C 15,4 C 8,2 km/h (2 Bft)
11.05.2021 21:35 15,5 C 1 % 86 % 1008,6 hPa 0,0 l/m 4,5 km/h (1 Bft) W 270 0 min 13,2 C 15,5 C 6,9 km/h (2 Bft)
11.05.2021 21:30 15,5 C 1 % 85 % 1008,6 hPa 0,0 l/m 2,3 km/h (1 Bft) W 270 0 min 13,0 C 15,5 C 4,7 km/h (1 Bft)
11.05.2021 21:25 15,6 C 1 % 85 % 1008,2 hPa 0,0 l/m 1,1 km/h (1 Bft) W 270 0 min 13,1 C 15,6 C 7,6 km/h (2 Bft)
11.05.2021 21:20 15,6 C 1 % 85 % 1008,2 hPa 0,0 l/m 0,2 km/h (0 Bft) S 180 0 min 13,1 C 15,6 C 1,6 km/h (1 Bft)
11.05.2021 21:15 15,6 C 1 % 85 % 1008,2 hPa 0,0 l/m 0,3 km/h (0 Bft) S-SW 202 0 min 13,1 C 15,6 C 0,0 km/h (0 Bft)
11.05.2021 21:10 15,7 C 2 % 84 % 1008,2 hPa 0,0 l/m 0,3 km/h (0 Bft) W 270 0 min 13,0 C 15,7 C 0,0 km/h (0 Bft)
11.05.2021 21:05 15,7 C 2 % 84 % 1007,7 hPa 0,0 l/m 0,3 km/h (0 Bft) S-SW 202 0 min 13,0 C 15,7 C 0,0 km/h (0 Bft)
11.05.2021 21:00 15,9 C 5 % 84 % 1007,7 hPa 0,0 l/m 1,0 km/h (0 Bft) S 180 0 min 13,2 C 15,9 C 2,6 km/h (1 Bft)
11.05.2021 20:55 15,8 C 6 % 83 % 1007,7 hPa 0,0 l/m 1,3 km/h (1 Bft) S-SW 202 0 min 12,9 C 15,8 C 0,0 km/h (0 Bft)
11.05.2021 20:50 16,1 C 11 % 83 % 1007,7 hPa 0,0 l/m 0,8 km/h (0 Bft) W-NW 292 0 min 13,2 C 16,1 C 0,0 km/h (0 Bft)
11.05.2021 20:45 16,1 C 14 % 83 % 1007,8 hPa 0,0 l/m 0,5 km/h (0 Bft) W 270 0 min 13,2 C 16,1 C 2,1 km/h (1 Bft)
11.05.2021 20:40 16,1 C 17 % 83 % 1007,8 hPa 0,0 l/m 1,1 km/h (1 Bft) W 270 5 min 13,2 C 16,1 C 0,0 km/h (0 Bft)
11.05.2021 20:35 16,1 C 17 % 83 % 1007,8 hPa 0,0 l/m 2,3 km/h (1 Bft) W-NW 292 5 min 13,2 C 16,1 C 0,0 km/h (0 Bft)
11.05.2021 20:30 16,1 C 18 % 83 % 1007,8 hPa 0,0 l/m 3,7 km/h (1 Bft) NW 315 5 min 13,2 C 16,1 C 2,7 km/h (1 Bft)
11.05.2021 20:25 16,1 C 19 % 82 % 1007,2 hPa 0,0 l/m 3,5 km/h (1 Bft) W-NW 292 5 min 13,0 C 16,1 C 5,8 km/h (2 Bft)
11.05.2021 20:20 16,1 C 24 % 82 % 1007,2 hPa 0,0 l/m 3,7 km/h (1 Bft) W 270 5 min 13,0 C 16,1 C 5,8 km/h (2 Bft)
11.05.2021 20:15 16,3 C 27 % 82 % 1007,2 hPa 0,0 l/m 3,7 km/h (1 Bft) W-SW 247 5 min 13,2 C 16,3 C 5,6 km/h (1 Bft)
11.05.2021 20:10 16,2 C 32 % 82 % 1007,2 hPa 0,0 l/m 4,0 km/h (1 Bft) NW 315 5 min 13,1 C 16,2 C 4,5 km/h (1 Bft)
11.05.2021 20:05 16,3 C 32 % 81 % 1007,5 hPa 0,0 l/m 4,5 km/h (1 Bft) W-NW 292 5 min 13,0 C 16,3 C 5,8 km/h (2 Bft)
11.05.2021 20:00 16,3 C 35 % 81 % 1007,5 hPa 0,0 l/m 5,5 km/h (1 Bft) NO 45 5 min 13,0 C 16,3 C 10,0 km/h (2 Bft)
11.05.2021 19:55 16,3 C 36 % 81 % 1007,5 hPa 0,0 l/m 4,7 km/h (1 Bft) NW 315 5 min 13,0 C 16,3 C 7,9 km/h (2 Bft)
11.05.2021 19:50 16,4 C 34 % 81 % 1007,5 hPa 0,0 l/m 2,9 km/h (1 Bft) NW 315 0 min 13,1 C 16,4 C 4,7 km/h (1 Bft)
11.05.2021 19:45 16,4 C 30 % 81 % 1007,7 hPa 0,0 l/m 2,1 km/h (1 Bft) N-NO 22 0 min 13,1 C 16,4 C 2,4 km/h (1 Bft)
11.05.2021 19:40 16,5 C 29 % 81 % 1007,7 hPa 0,0 l/m 2,1 km/h (1 Bft) NW 315 0 min 13,2 C 16,5 C 2,6 km/h (1 Bft)
11.05.2021 19:35 16,7 C 30 % 81 % 1007,7 hPa 0,0 l/m 2,6 km/h (1 Bft) N-NO 22 0 min 13,4 C 16,7 C 2,3 km/h (1 Bft)
11.05.2021 19:30 16,7 C 27 % 80 % 1007,7 hPa 0,0 l/m 2,7 km/h (1 Bft) N 360 0 min 13,2 C 16,7 C 3,5 km/h (1 Bft)
11.05.2021 19:25 16,7 C 24 % 80 % 1007,6 hPa 0,0 l/m 2,7 km/h (1 Bft) N 360 0 min 13,2 C 16,7 C 5,8 km/h (2 Bft)
11.05.2021 19:20 16,8 C 25 % 80 % 1007,6 hPa 0,0 l/m 3,4 km/h (1 Bft) N-NW 337 0 min 13,3 C 16,8 C 3,5 km/h (1 Bft)
11.05.2021 19:15 16,9 C 26 % 80 % 1007,6 hPa 0,0 l/m 3,4 km/h (1 Bft) N-NW 337 0 min 13,4 C 16,9 C 5,3 km/h (1 Bft)
11.05.2021 19:10 17,0 C 21 % 80 % 1007,6 hPa 0,0 l/m 3,7 km/h (1 Bft) N-NW 337 0 min 13,5 C 17,0 C 2,4 km/h (1 Bft)
11.05.2021 19:05 17,1 C 18 % 79 % 1007,3 hPa 0,0 l/m 4,7 km/h (1 Bft) N-NW 337 0 min 13,4 C 17,1 C 4,2 km/h (1 Bft)
11.05.2021 19:00 17,2 C 26 % 79 % 1007,3 hPa 0,0 l/m 5,0 km/h (1 Bft) N-NW 337 0 min 13,5 C 17,2 C 3,7 km/h (1 Bft)
11.05.2021 18:55 17,2 C 29 % 78 % 1007,3 hPa 0,0 l/m 5,0 km/h (1 Bft) N-NW 337 0 min 13,3 C 17,2 C 8,4 km/h (2 Bft)
11.05.2021 18:50 17,2 C 24 % 78 % 1007,3 hPa 0,0 l/m 6,1 km/h (2 Bft) NW 315 0 min 13,3 C 17,2 C 7,2 km/h (2 Bft)
11.05.2021 18:45 17,3 C 27 % 78 % 1007,3 hPa 0,0 l/m 6,8 km/h (2 Bft) NW 315 0 min 13,4 C 17,3 C 4,2 km/h (1 Bft)
11.05.2021 18:40 17,5 C 36 % 78 % 1007,3 hPa 0,0 l/m 6,9 km/h (2 Bft) O-NO 67 0 min 13,6 C 17,5 C 10,9 km/h (2 Bft)
11.05.2021 18:35 17,5 C 40 % 78 % 1007,3 hPa 0,0 l/m 7,2 km/h (2 Bft) NW 315 0 min 13,6 C 17,5 C 8,2 km/h (2 Bft)
11.05.2021 18:30 17,6 C 48 % 77 % 1007,3 hPa 0,0 l/m 6,9 km/h (2 Bft) NW 315 0 min 13,5 C 17,6 C 8,9 km/h (2 Bft)
11.05.2021 18:25 17,6 C 43 % 77 % 1007,6 hPa 0,0 l/m 6,1 km/h (2 Bft) NW 315 0 min 13,5 C 17,6 C 9,7 km/h (2 Bft)
11.05.2021 18:20 17,7 C 37 % 77 % 1007,6 hPa 0,0 l/m 5,5 km/h (1 Bft) N-NW 337 0 min 13,6 C 17,7 C 7,9 km/h (2 Bft)
11.05.2021 18:15 17,8 C 43 % 77 % 1007,6 hPa 0,0 l/m 5,5 km/h (1 Bft) NW 315 0 min 13,7 C 17,8 C 4,8 km/h (1 Bft)
11.05.2021 18:10 18,1 C 49 % 76 % 1007,6 hPa 0,0 l/m 5,3 km/h (1 Bft) SW 225 0 min 13,8 C 18,1 C 12,9 km/h (3 Bft)
11.05.2021 18:05 18,1 C 56 % 76 % 1007,6 hPa 0,0 l/m 5,3 km/h (1 Bft) W-SW 247 0 min 13,8 C 18,1 C 6,8 km/h (2 Bft)
11.05.2021 18:00 18,0 C 63 % 76 % 1007,6 hPa 0,0 l/m 6,1 km/h (2 Bft) NW 315 0 min 13,7 C 18,0 C 5,0 km/h (1 Bft)
11.05.2021 17:55 18,1 C 64 % 76 % 1007,6 hPa 0,0 l/m 6,8 km/h (2 Bft) W-NW 292 0 min 13,8 C 18,1 C 6,9 km/h (2 Bft)
11.05.2021 17:50 18,0 C 69 % 77 % 1007,6 hPa 0,0 l/m 7,2 km/h (2 Bft) W-NW 292 0 min 13,9 C 18,0 C 8,7 km/h (2 Bft)
11.05.2021 17:45 18,1 C 75 % 77 % 1007,2 hPa 0,0 l/m 7,1 km/h (2 Bft) NW 315 0 min 14,0 C 18,1 C 8,4 km/h (2 Bft)
11.05.2021 17:40 17,9 C 77 % 77 % 1007,2 hPa 0,0 l/m 8,5 km/h (2 Bft) W-SW 247 0 min 13,8 C 17,9 C 9,2 km/h (2 Bft)
11.05.2021 17:35 18,0 C 81 % 77 % 1007,2 hPa 0,0 l/m 9,3 km/h (2 Bft) W-NW 292 0 min 13,9 C 18,0 C 9,3 km/h (2 Bft)
11.05.2021 17:30 18,0 C 82 % 77 % 1007,2 hPa 0,0 l/m 9,8 km/h (2 Bft) W 270 0 min 13,9 C 18,0 C 15,6 km/h (3 Bft)
11.05.2021 17:25 18,0 C 83 % 77 % 1007,3 hPa 0,0 l/m 10,0 km/h (2 Bft) NW 315 0 min 13,9 C 18,0 C 8,7 km/h (2 Bft)
11.05.2021 17:20 18,1 C 85 % 77 % 1007,3 hPa 0,0 l/m 9,5 km/h (2 Bft) N-NW 337 0 min 14,0 C 18,1 C 12,7 km/h (3 Bft)
11.05.2021 17:15 18,1 C 80 % 79 % 1007,3 hPa 0,0 l/m 9,3 km/h (2 Bft) W-NW 292 0 min 14,4 C 18,1 C 10,8 km/h (2 Bft)
11.05.2021 17:10 17,9 C 84 % 79 % 1007,3 hPa 0,0 l/m 8,9 km/h (2 Bft) W-NW 292 0 min 14,2 C 17,9 C 8,4 km/h (2 Bft)
11.05.2021 17:05 17,7 C 82 % 79 % 1007,6 hPa 0,0 l/m 8,5 km/h (2 Bft) W-NW 292 0 min 14,0 C 17,7 C 14,3 km/h (3 Bft)
11.05.2021 17:00 17,6 C 71 % 78 % 1007,6 hPa 0,0 l/m 8,4 km/h (2 Bft) NW 315 0 min 13,7 C 17,6 C 10,8 km/h (2 Bft)
11.05.2021 16:55 17,5 C 73 % 78 % 1007,6 hPa 0,0 l/m 8,0 km/h (2 Bft) W 270 0 min 13,6 C 17,5 C 11,4 km/h (2 Bft)
11.05.2021 16:50 17,5 C 62 % 78 % 1007,6 hPa 0,0 l/m 8,2 km/h (2 Bft) NW 315 0 min 13,6 C 17,5 C 11,6 km/h (2 Bft)
11.05.2021 16:45 17,5 C 59 % 77 % 1007,5 hPa 0,0 l/m 7,4 km/h (2 Bft) NW 315 0 min 13,4 C 17,5 C 12,1 km/h (2 Bft)
11.05.2021 16:40 17,6 C 59 % 78 % 1007,5 hPa 0,0 l/m 6,1 km/h (2 Bft) W-NW 292 0 min 13,7 C 17,6 C 9,7 km/h (2 Bft)
11.05.2021 16:35 17,6 C 59 % 77 % 1007,5 hPa 0,0 l/m 5,8 km/h (2 Bft) N-NW 337 0 min 13,5 C 17,6 C 5,1 km/h (1 Bft)
11.05.2021 16:30 17,7 C 56 % 76 % 1007,5 hPa 0,0 l/m 5,8 km/h (2 Bft) N-NW 337 0 min 13,4 C 17,7 C 5,1 km/h (1 Bft)
11.05.2021 16:25 17,7 C 52 % 76 % 1007,7 hPa 0,0 l/m 6,6 km/h (2 Bft) NW 315 0 min 13,4 C 17,7 C 6,3 km/h (2 Bft)
11.05.2021 16:20 17,9 C 53 % 75 % 1007,7 hPa 0,0 l/m 7,1 km/h (2 Bft) S 180 0 min 13,4 C 17,9 C 7,1 km/h (2 Bft)
11.05.2021 16:15 18,1 C 54 % 76 % 1007,7 hPa 0,0 l/m 6,8 km/h (2 Bft) NW 315 0 min 13,8 C 18,1 C 9,7 km/h (2 Bft)
11.05.2021 16:10 18,2 C 52 % 75 % 1007,7 hPa 0,0 l/m 6,0 km/h (2 Bft) NW 315 0 min 13,7 C 18,2 C 7,6 km/h (2 Bft)
11.05.2021 16:05 18,4 C 56 % 74 % 1007,4 hPa 0,0 l/m 5,5 km/h (1 Bft) W 270 0 min 13,7 C 18,4 C 6,4 km/h (2 Bft)
11.05.2021 16:00 18,4 C 57 % 75 % 1007,4 hPa 0,0 l/m 5,0 km/h (1 Bft) NW 315 0 min 13,9 C 18,4 C 4,2 km/h (1 Bft)
_ Min-Zeit 08:05 - 16:05 17:30 - 21:20 - - - 08:05 08:05 20:35
Minimum _ 13,1 C - 74 % 1007,2 hPa - 0,2 km/h (0 Bft) - - - 11,3 C 13,1 C 0,0 km/h (0 Bft)
_ Max-Zeit 16:00 14:55 04:55 14:10 02:25 12:45 - - 19:55 17:15 16:00 12:45
Maximum _ 18,4 C 88 % 91 % 1011,6 hPa 0,3 l/m 11,7 km/h
NW (2 Bft)
- - 5 min 14,4 C 18,4 C 21,2 km/h
NW (4 Bft)
Durchschnitt _ 15,2 C #20 min. 85 % 1009,0 hPa #5,4 l/m 5,2 km/h (1 Bft) W - #20 min. 12,6 C 15,2 C 6,5 km/h (2 Bft)